Gilford, NH

9:29 PM EST on February 25, 2017 (GMT -0500)
Laconia Municipal

Weather History for KLCI - June, 2013

Change the Weather History Date:

Sunday, June 2, 2013

  Actual Average Record
Temperature  
Mean Temperature 78 °F -  
Max Temperature 89 °F 74 °F 89 °F (2013)
Min Temperature 66 °F 51 °F 39 °F (1988)
Cooling Degree Days 12    
Growing Degree Days 28 (Base 50)    
Moisture  
Dew Point 64 °F    
Average Humidity 69    
Maximum Humidity 88    
Minimum Humidity 40    
Precipitation  
Precipitation 0.54 in - - ()
Sea Level Pressure  
Sea Level Pressure 29.78 in    
Wind  
Wind Speed 8 mph (SW)    
Max Wind Speed 21 mph    
Max Gust Speed 30 mph    
Visibility 10 miles    
Events Thunderstorm    
Averages and records for this station are not official NWS values.
T = Trace of Precipitation, MM = Missing Value Source: NWS Daily Summary

Daily Weather History Graph

Daily Weather History Graph

Search for Another Location

Airport or City:

Trip Planner

Search our weather history database for the weather conditions in past years. The results will help you decide how hot, cold, wet, or windy it might be!

Date:

Astronomy

Jun. 02, 2013 Rise Set
Actual Time 5:06 AM EDT 8:21 PM EDT
Civil Twilight 4:31 AM EDT 8:56 PM EDT
Nautical Twilight 3:46 AM EDT 9:41 PM EDT
Astronomical Twilight 2:51 AM EDT 10:37 PM EDT
Moon 1:42 AM EDT (6/2) 2:39 PM EDT (6/2)
Length of Visible Light 16h 24m
Length of Day
15h 14m
Waning Crescent, 31% of the Moon is Illuminated
Jun 2
Waning Crescent
Jun 8
New
Jun 16
First Quarter
Jun 23
Full
Jun 30
Last Quarter

Hourly Weather History & Observations

Time (EDT) Temp. Heat Index Dew Point Humidity Pressure Visibility Wind Dir Wind Speed Gust Speed Precip Events Conditions
12:15 AM 75.2 °F - 64.4 °F 69% 29.85 in 10.0 mi South 9.2 mph - N/A   Clear
12:35 AM 75.2 °F - 64.4 °F 69% 29.84 in 10.0 mi South 8.1 mph - N/A   Clear
12:55 AM 75.2 °F - 64.4 °F 69% 29.84 in 10.0 mi SSW 9.2 mph - N/A   Clear
1:15 AM 75.2 °F - 64.4 °F 69% 29.83 in 10.0 mi South 11.5 mph 16.1 mph N/A   Clear
1:35 AM 75.2 °F - 64.4 °F 69% 29.83 in 10.0 mi SSW 6.9 mph - N/A   Clear
1:55 AM 75.2 °F - 64.4 °F 69% 29.83 in 10.0 mi SW 8.1 mph - N/A   Clear
2:15 AM 75.2 °F - 64.4 °F 69% 29.83 in 10.0 mi SSW 9.2 mph - N/A   Clear
2:35 AM 73.4 °F - 64.4 °F 73% 29.83 in 10.0 mi SW 5.8 mph - N/A   Clear
2:55 AM 73.4 °F - 64.4 °F 73% 29.83 in 10.0 mi Calm Calm - N/A   Clear
3:15 AM 73.4 °F - 64.4 °F 73% 29.83 in 10.0 mi WNW 3.5 mph - N/A   Clear
3:35 AM 71.6 °F - 64.4 °F 78% 29.83 in 10.0 mi Calm Calm - N/A   Clear
3:55 AM 69.8 °F - 64.4 °F 83% 29.83 in 10.0 mi WSW 4.6 mph - N/A   Clear
4:15 AM 69.8 °F - 64.4 °F 83% 29.82 in 10.0 mi West 4.6 mph - N/A   Clear
4:35 AM 69.8 °F - 64.4 °F 83% 29.82 in 4.0 mi WSW 4.6 mph - N/A   Clear
4:55 AM 69.8 °F - 64.4 °F 83% 29.82 in 10.0 mi WSW 4.6 mph - N/A   Clear
5:15 AM 69.8 °F - 64.4 °F 83% 29.82 in 10.0 mi WSW 4.6 mph - N/A   Clear
5:35 AM 69.8 °F - 64.4 °F 83% 29.82 in 10.0 mi WSW 5.8 mph - N/A   Clear
5:55 AM 69.8 °F - 64.4 °F 83% 29.82 in 10.0 mi West 4.6 mph - N/A   Clear
6:15 AM 71.6 °F - 64.4 °F 78% 29.82 in 10.0 mi West 4.6 mph - N/A   Clear
6:35 AM 71.6 °F - 64.4 °F 78% 29.82 in 10.0 mi SSW 3.5 mph - N/A   Clear
6:55 AM 73.4 °F - 64.4 °F 73% 29.82 in 10.0 mi SW 4.6 mph - N/A   Clear
7:15 AM 73.4 °F - 64.4 °F 73% 29.82 in 10.0 mi SW 4.6 mph - N/A   Clear
7:35 AM 75.2 °F - 66.2 °F 73% 29.82 in 10.0 mi SW 5.8 mph - N/A   Clear
7:55 AM 75.2 °F - 64.4 °F 69% 29.82 in 10.0 mi WSW 6.9 mph - N/A   Clear
8:15 AM 75.2 °F - 66.2 °F 73% 29.82 in 10.0 mi SW 5.8 mph - N/A   Clear
8:35 AM 77.0 °F - 64.4 °F 65% 29.81 in 10.0 mi SSW 6.9 mph - N/A   Clear
8:55 AM 78.8 °F - 66.2 °F 65% 29.81 in 10.0 mi SSW 9.2 mph - N/A   Clear
9:15 AM 78.8 °F - 66.2 °F 65% 29.80 in 10.0 mi SSW 8.1 mph - N/A   Clear
9:35 AM 80.6 °F 82.7 °F 66.2 °F 61% 29.79 in 10.0 mi South 5.8 mph - N/A   Clear
9:55 AM 82.4 °F 84.6 °F 66.2 °F 58% 29.79 in 10.0 mi SW 9.2 mph - N/A   Clear
10:15 AM 82.4 °F 84.6 °F 66.2 °F 58% 29.78 in 10.0 mi South 9.2 mph - N/A   Clear
10:35 AM 82.4 °F 84.6 °F 66.2 °F 58% 29.77 in 10.0 mi SSW 10.4 mph - N/A   Clear
10:55 AM 84.2 °F 86.6 °F 66.2 °F 55% 29.77 in 10.0 mi SSW 12.7 mph 17.3 mph N/A   Clear
11:15 AM 84.2 °F 86.6 °F 66.2 °F 55% 29.76 in 10.0 mi South 10.4 mph 18.4 mph N/A   Partly Cloudy
11:35 AM 86.0 °F 88.2 °F 66.2 °F 51% 29.75 in 10.0 mi SSW 13.8 mph 25.3 mph N/A   Scattered Clouds
11:55 AM 87.8 °F 90.4 °F 66.2 °F 49% 29.75 in 10.0 mi SSW 12.7 mph 19.6 mph N/A   Partly Cloudy
12:15 PM 87.8 °F 89.4 °F 64.4 °F 46% 29.74 in 10.0 mi SSW 16.1 mph 25.3 mph N/A   Clear
12:35 PM 89.6 °F 91.1 °F 64.4 °F 43% 29.73 in 10.0 mi SW 18.4 mph 29.9 mph N/A   Partly Cloudy
12:55 PM 89.6 °F 91.1 °F 64.4 °F 43% 29.72 in 10.0 mi SW 19.6 mph 26.5 mph N/A   Clear
1:15 PM 89.6 °F 91.1 °F 64.4 °F 43% 29.72 in 10.0 mi SSW 18.4 mph 24.2 mph N/A   Partly Cloudy
1:35 PM 89.6 °F 91.1 °F 64.4 °F 43% 29.71 in 10.0 mi SSW 11.5 mph 23.0 mph N/A   Partly Cloudy
1:55 PM 87.8 °F 89.4 °F 64.4 °F 46% 29.70 in 10.0 mi SSW 18.4 mph 24.2 mph N/A   Scattered Clouds
2:15 PM 89.6 °F 91.1 °F 64.4 °F 43% 29.69 in 10.0 mi SSW 16.1 mph 29.9 mph N/A   Scattered Clouds
2:35 PM 89.6 °F 91.1 °F 64.4 °F 43% 29.68 in 10.0 mi South 17.3 mph 21.9 mph N/A   Scattered Clouds
2:55 PM 89.6 °F 91.1 °F 64.4 °F 43% 29.68 in 10.0 mi SSW 15.0 mph 26.5 mph N/A   Scattered Clouds
3:15 PM 89.6 °F 91.1 °F 64.4 °F 43% 29.66 in 10.0 mi South 16.1 mph 25.3 mph N/A   Scattered Clouds
3:35 PM 89.6 °F 91.1 °F 64.4 °F 43% 29.66 in 10.0 mi SSW 19.6 mph 27.6 mph N/A   Partly Cloudy
3:55 PM 89.6 °F 90.1 °F 62.6 °F 40% 29.66 in 10.0 mi SW 20.7 mph 28.8 mph N/A   Partly Cloudy
4:15 PM 78.8 °F - 59.0 °F 51% 29.72 in 10.0 mi West 15.0 mph 26.5 mph N/A Thunderstorm Mostly Cloudy
4:35 PM 75.2 °F - 60.8 °F 61% 29.74 in 10.0 mi NW 15.0 mph 20.7 mph N/A Thunderstorm Thunderstorm
4:55 PM 71.6 °F - 62.6 °F 73% 29.78 in 10.0 mi WNW 3.5 mph - N/A Thunderstorm Mostly Cloudy
5:15 PM 69.8 °F - 62.6 °F 78% 29.76 in 7.0 mi Calm Calm - 0.08 in Thunderstorm Mostly Cloudy
5:35 PM 68.0 °F - 62.6 °F 83% 29.79 in 5.0 mi WSW 12.7 mph 16.1 mph 0.33 in Thunderstorm Thunderstorm
5:55 PM 68.0 °F - 62.6 °F 83% 29.78 in 9.0 mi SW 8.1 mph - 0.49 in Thunderstorm Thunderstorm
6:15 PM 68.0 °F - 62.6 °F 83% 29.77 in 10.0 mi SSW 8.1 mph - 0.03 in Thunderstorm Thunderstorm
6:35 PM 68.0 °F - 62.6 °F 83% 29.77 in 10.0 mi South 4.6 mph - 0.03 in   Mostly Cloudy
6:55 PM 68.0 °F - 62.6 °F 83% 29.77 in 10.0 mi SSW 5.8 mph - 0.03 in   Mostly Cloudy
7:15 PM 69.8 °F - 62.6 °F 78% 29.77 in 10.0 mi WSW 8.1 mph - N/A   Mostly Cloudy
7:35 PM 69.8 °F - 62.6 °F 78% 29.76 in 10.0 mi SSW 5.8 mph - N/A   Overcast
7:55 PM 68.0 °F - 62.6 °F 83% 29.76 in 10.0 mi South 8.1 mph - 0.02 in   Overcast
8:15 PM 68.0 °F - 62.6 °F 83% 29.76 in 10.0 mi SSW 5.8 mph - N/A   Mostly Cloudy
8:35 PM 68.0 °F - 62.6 °F 83% 29.77 in 10.0 mi SSW 11.5 mph - N/A   Scattered Clouds
8:55 PM 68.0 °F - 62.6 °F 83% 29.77 in 10.0 mi SSW 9.2 mph - N/A   Mostly Cloudy
9:15 PM 68.0 °F - 62.6 °F 83% 29.78 in 10.0 mi SW 6.9 mph - N/A   Scattered Clouds
9:35 PM 66.2 °F - 62.6 °F 88% 29.78 in 10.0 mi WNW 5.8 mph - N/A   Clear
9:55 PM 66.2 °F - 62.6 °F 88% 29.79 in 10.0 mi Calm Calm - N/A   Clear
10:15 PM 66.2 °F - 62.6 °F 88% 29.79 in 10.0 mi Calm Calm - N/A   Clear
10:35 PM 66.2 °F - 62.6 °F 88% 29.79 in 10.0 mi West 4.6 mph - N/A   Partly Cloudy
10:55 PM 66.2 °F - 62.6 °F 88% 29.81 in 10.0 mi West 4.6 mph - N/A   Mostly Cloudy
11:15 PM 66.2 °F - 62.6 °F 88% 29.80 in 10.0 mi South 4.6 mph - N/A   Mostly Cloudy
11:35 PM 66.2 °F - 62.6 °F 88% 29.80 in 10.0 mi South 3.5 mph - N/A   Mostly Cloudy
11:55 PM 66.2 °F - 62.6 °F 88% 29.80 in 10.0 mi SW 5.8 mph - N/A   Mostly Cloudy